DW4685 Weather Reports


Display with metric or nautical units.
time (UTC)temp
F
wind
direction
speed
MPH
gust
MPH
rain 1hr
in
rain 24hr
in
rain mn
in
humidity
%
barometer
mb
20260502200003 67 199 4.0 12.0 0.00 0.00 0.00 33 1008.0
20260502194504 67 176 3.0 11.0 0.00 0.00 0.00 34 1008.4
20260502193003 67 158 3.0 10.0 0.00 0.00 0.00 34 1008.5
20260502191503 66 174 4.0 15.0 0.00 0.00 0.00 37 1008.9
20260502190220 64 138 4.0 12.0 0.00 0.00 0.00 38 1009.1
20260502184504 62 153 3.0 14.0 0.00 0.00 0.00 38 1009.6
20260502183003 63 136 5.0 17.0 0.00 0.00 0.00 37 1009.9
20260502181503 63 223 3.0 9.0 0.00 0.00 0.00 35 1010.1
20260502163003 59 191 2.0 9.0 0.00 0.00 0.00 38 1012.1
20260502161503 58 145 3.0 12.0 0.00 0.00 0.00 37 1012.4
20260502160218 57 142 3.0 11.0 0.00 0.00 0.00 38 1012.6
20260502151504 54 151 2.0 8.0 0.00 0.00 0.00 45 1013.4
20260502123004 26 223 0.0 1.0 0.00 0.00 0.00 87 1015.6
20260502121503 26 0 0.0 0.0 0.00 0.00 0.00 87 1015.7
20260502114718 24 0 0.0 0.0 0.00 0.00 0.00 87 1016.0
20260502113004 24 0 0.0 0.0 0.00 0.00 0.00 86 1016.0
20260502111503 23 0 0.0 0.0 0.00 0.00 0.00 85 1016.1
20260502110004 23 0 0.0 0.0 0.00 0.00 0.00 85 1016.1
20260502104503 23 0 0.0 0.0 0.00 0.00 0.00 85 1016.2
20260502103004 23 0 0.0 0.0 0.00 0.00 0.00 84 1016.3
20260502101504 23 0 0.0 0.0 0.00 0.00 0.00 83 1016.3
20260502100218 24 0 0.0 0.0 0.00 0.00 0.00 83 1016.5
20260502071503 26 0 0.0 0.0 0.00 0.00 0.00 80 1017.4
20260502070003 26 0 0.0 0.0 0.00 0.00 0.00 79 1017.6
20260502064504 26 197 1.0 5.0 0.00 0.00 0.00 79 1017.7
20260502063003 26 0 0.0 0.0 0.00 0.00 0.00 76 1017.6
20260502061504 27 0 0.0 0.0 0.00 0.00 0.00 76 1017.6
20260502060219 27 0 0.0 0.0 0.00 0.00 0.00 76 1017.7
20260502054503 28 0 0.0 0.0 0.00 0.00 0.00 76 1017.8
20260502053004 28 0 0.0 0.0 0.00 0.00 0.00 75 1017.8
20260502051504 28 0 0.0 0.0 0.00 0.00 0.00 75 1017.9
20260502050004 29 0 0.0 0.0 0.00 0.00 0.00 74 1018.0
20260502044504 29 0 0.0 0.0 0.00 0.00 0.00 73 1018.1
20260502043218 30 0 0.0 0.0 0.00 0.00 0.00 72 1018.1
20260502041504 30 0 0.0 0.0 0.00 0.00 0.00 71 1018.1
20260502040005 31 0 0.0 0.0 0.00 0.00 0.00 69 1018.1
20260502034504 32 0 0.0 0.0 0.00 0.00 0.00 67 1018.2
20260502033003 33 0 0.0 0.0 0.00 0.00 0.00 67 1018.2
20260502031503 34 0 0.0 0.0 0.00 0.00 0.00 64 1018.2
20260502030003 35 0 0.0 0.0 0.00 0.00 0.00 62 1018.3
20260502024718 36 0 0.0 0.0 0.00 0.00 0.00 60 1018.3
20260502023003 38 0 0.0 0.0 0.00 0.00 0.00 59 1018.2
20260502021504 40 0 0.0 0.0 0.00 0.00 0.00 56 1018.1
20260502020004 42 0 0.0 0.0 0.00 0.00 0.00 53 1018.1
20260502014503 44 0 0.0 0.0 0.00 0.00 0.00 48 1018.0
20260502013217 46 0 0.0 0.0 0.00 0.00 0.00 45 1017.9
20260502011503 48 50 0.0 2.0 0.00 0.00 0.00 40 1017.9
20260502010004 49 58 1.0 4.0 0.00 0.00 0.00 40 1017.8
20260502004503 50 72 1.0 3.0 0.00 0.00 0.00 40 1017.8
20260502003004 51 6 2.0 7.0 0.00 0.00 0.00 38 1017.8
20260502001504 53 14 0.0 4.0 0.00 0.00 0.00 33 1017.7
20260502000004 54 360 1.0 4.0 0.00 0.00 0.00 32 1017.8
20260501234503 54 31 1.0 5.0 0.00 0.00 0.00 33 1017.8
20260501233218 55 350 3.0 9.0 0.00 0.00 0.00 31 1017.9
20260501231503 55 349 1.0 6.0 0.00 0.00 0.00 32 1017.9
20260501230003 54 297 2.0 10.0 0.00 0.00 0.00 31 1017.9
20260501224503 56 356 1.0 6.0 0.00 0.00 0.00 30 1018.0
20260501223004 56 321 3.0 9.0 0.00 0.00 0.00 29 1018.0
20260501221503 56 330 3.0 11.0 0.00 0.00 0.00 30 1018.1
20260501214717 56 328 4.0 11.0 0.00 0.00 0.00 28 1018.2
20260501213218 57 352 3.0 12.0 0.00 0.00 0.00 29 1018.3
20260501211504 56 274 5.0 15.0 0.00 0.00 0.00 29 1018.4
20260501210003 56 316 3.0 9.0 0.00 0.00 0.00 30 1018.4
20260501204504 56 322 2.0 9.0 0.00 0.00 0.00 30 1018.6
20260501203004 55 305 3.0 9.0 0.00 0.00 0.00 32 1018.7
20260501201504 54 280 5.0 12.0 0.00 0.00 0.00 31 1018.8
20260501200217 55 334 2.0 4.0 0.00 0.00 0.00 29 1018.8